Weather History for KNBG - February, 2014

Change the Weather History Date:

Wednesday, February 19, 2014

  Actual Average Record
Temperature  
Mean Temperature 70 °F -  
Max Temperature 77 °F 64 °F 77 °F (2014)
Min Temperature 64 °F 49 °F 30 °F (2007)
Cooling Degree Days 6    
Growing Degree Days 20 (Base 50)    
Moisture  
Dew Point 64 °F    
Average Humidity 81    
Maximum Humidity 94    
Minimum Humidity 62    
Precipitation  
Precipitation 0.00 in - - ()
Sea Level Pressure  
Sea Level Pressure 30.05 in    
Wind  
Wind Speed 4 mph (South)    
Max Wind Speed 15 mph    
Max Gust Speed 22 mph    
Visibility 7 miles    
Events Fog    
Averages and records for this station are not official NWS values.
T = Trace of Precipitation, MM = Missing Value Source: NWS Daily Summary

Daily Weather History Graph

Daily Weather History Graph

Search for Another Location

Airport or City:

Trip Planner

Search our weather history database for the weather conditions in past years. The results will help you decide how hot, cold, wet, or windy it might be!

Date:

Astronomy

Feb. 19, 2014 Rise Set
Actual Time 6:36 AM CST 5:52 PM CST
Civil Twilight 6:11 AM CST 6:16 PM CST
Nautical Twilight 5:43 AM CST 6:44 PM CST
Astronomical Twilight 5:16 AM CST 7:12 PM CST
Moon 10:20 PM CST (2/19) 9:04 AM CST (2/19)
Length of Visible Light 12h 04m
Length of Day
11h 16m
Waning Gibbous, 79% of the Moon is Illuminated
Feb 19
Waning Gibbous
Feb 22
Last Quarter
Mar 1
New
Mar 8
First Quarter
Mar 16
Full

Hourly Weather History & Observations

Time (CST) Temp. Dew Point Humidity Pressure Visibility Wind Dir Wind Speed Gust Speed Precip Events Conditions
6:07 AM 66.2 °F 62.6 °F 88% 30.08 in 0.5 mi Calm Calm - N/A Fog Fog
6:47 AM 66.2 °F 64.4 °F 94% 30.10 in 2.5 mi Calm Calm - N/A   Overcast
6:55 AM 66.0 °F 63.0 °F 90% 30.10 in 2.5 mi Calm Calm - N/A   Mostly Cloudy
6:57 AM 64.4 °F 62.6 °F 94% 30.10 in 2.5 mi Calm Calm - N/A   Mostly Cloudy
7:55 AM 66.9 °F 64.0 °F 90% 30.09 in 2.0 mi Calm Calm - N/A   Overcast
8:34 AM 68.0 °F 64.4 °F 88% 30.10 in 3.0 mi Calm Calm - N/A   Mostly Cloudy
8:55 AM 69.1 °F 64.0 °F 84% 30.11 in 3.0 mi Calm Calm - N/A   Overcast
9:22 AM 69.8 °F 62.6 °F 78% 30.11 in 7.0 mi SSW 4.6 mph - N/A   Mostly Cloudy
9:55 AM 71.1 °F 63.0 °F 75% 30.11 in 10.0 mi South 4.6 mph - N/A   Mostly Cloudy
10:55 AM 73.0 °F 62.1 °F 68% 30.09 in 10.0 mi SSW 6.9 mph - N/A   Mostly Cloudy
11:55 AM 75.0 °F 63.0 °F 66% 30.07 in 10.0 mi SW 9.2 mph - N/A   Mostly Cloudy
12:55 PM 77.0 °F 63.0 °F 62% 30.04 in 10.0 mi SSW 12.7 mph - N/A   Mostly Cloudy
1:55 PM 77.0 °F 63.0 °F 62% 30.01 in 10.0 mi South 15.0 mph - N/A   Mostly Cloudy
2:55 PM 75.2 °F 62.6 °F 65% 29.99 in 10.0 mi SSE 15.0 mph 21.9 mph N/A   Mostly Cloudy
3:55 PM 75.0 °F 64.0 °F 69% 29.99 in 10.0 mi South 11.5 mph - N/A   Mostly Cloudy
4:55 PM 73.0 °F 64.0 °F 73% 29.99 in 10.0 mi South 12.7 mph - N/A   Mostly Cloudy
5:55 PM 71.1 °F 64.9 °F 81% 30.00 in 10.0 mi South 8.1 mph - N/A   Mostly Cloudy
6:48 PM 69.8 °F 64.4 °F 83% 30.00 in 10.0 mi SSE 6.9 mph - N/A   Mostly Cloudy
6:55 PM 70.0 °F 64.9 °F 84% 30.00 in 10.0 mi SSE 4.6 mph - N/A   Mostly Cloudy
7:55 PM 66.9 °F 63.0 °F 87% 30.01 in 7.0 mi SE 4.6 mph - N/A   Mostly Cloudy
8:48 PM 68.0 °F 64.4 °F 88% 30.01 in 7.0 mi SSE 8.1 mph - N/A   Mostly Cloudy
8:55 PM 68.0 °F 64.9 °F 90% 30.00 in 7.0 mi SSE 8.1 mph - N/A   Mostly Cloudy
9:55 PM 68.0 °F 64.0 °F 87% 30.00 in 6.0 mi SSE 5.8 mph - N/A   Mostly Cloudy
10:55 PM 66.9 °F 64.0 °F 90% 29.99 in 6.0 mi South 6.9 mph - N/A   Mostly Cloudy